Weather History for Bowling Green, KY

Change the Weather History Date:

Monday, April 9, 2012

  Actual Average Record
Temperature  
Mean Temperature 57 °F 56 °F  
Max Temperature 74 °F 68 °F 89 °F (1978)
Min Temperature 39 °F 44 °F 22 °F (1914)
Degree Days  
Heating Degree Days 8 10  
Month to date heating degree days 40 100  
Since 1 July heating degree days 2822 3818  
Cooling Degree Days 0 1  
Month to date cooling degree days 30 8  
Year to date cooling degree days 88 13  
Growing Degree Days 6 (Base 50)    
Moisture  
Dew Point 34 °F    
Average Humidity 52    
Maximum Humidity 85    
Minimum Humidity 19    
Precipitation  
Precipitation 0.00 in 0.14 in 2.30 in (1942)
Month to date precipitation 0.25 1.20  
Year to date precipitation 10.77 13.18  
Snow  
Snow 0.00 in 0.00 in 0.00 in ()
Month to date snowfall 0.0 0.1  
Since 1 July snowfall 1.4 9.0  
Snow Depth 0.00 in    
Sea Level Pressure  
Sea Level Pressure 30.10 in    
Wind  
Wind Speed 6 mph (West)    
Max Wind Speed 20 mph    
Max Gust Speed 29 mph    
Visibility 10 miles    
Events      
T = Trace of Precipitation, MM = Missing Value Source: NWS Daily Summary

Daily Weather History Graph

Daily Weather History Graph

Search for Another Location

Airport:

Trip Planner

Search our weather history database for the weather conditions in past years. The results will help you decide how hot, cold, wet, or windy it might be!

Date:

Astronomy

Apr. 09, 2012 Rise Set
Actual Time 6:19 AM CDT 7:15 PM CDT
Civil Twilight 5:52 AM CDT 7:42 PM CDT
Nautical Twilight 5:21 AM CDT 8:13 PM CDT
Astronomical Twilight 4:48 AM CDT 8:46 PM CDT
Moon 11:04 PM CDT (4/9) 8:11 AM CDT (4/9)
Length of Visible Light 13h 49m
Length of Day
12h 56m
Waning Gibbous, 88% of the Moon is Illuminated
Apr 9
Waning Gibbous
Apr 13
Last Quarter
Apr 21
New
Apr 29
First Quarter
May 5
Full

Hourly Weather History & Observations

Time (CDT) Temp. Dew Point Humidity Pressure Visibility Wind Dir Wind Speed Gust Speed Precip Events Conditions
12:53 AM 46.0 °F 36.0 °F 68% 30.18 in 10.0 mi Calm Calm - N/A   Clear
1:53 AM 45.0 °F 37.0 °F 74% 30.17 in 10.0 mi Calm Calm - N/A   Clear
2:53 AM 43.0 °F 37.0 °F 80% 30.15 in 10.0 mi Calm Calm - N/A   Clear
3:53 AM 42.1 °F 37.0 °F 82% 30.15 in 10.0 mi Calm Calm - N/A   Clear
4:53 AM 43.0 °F 34.0 °F 71% 30.14 in 10.0 mi Calm Calm - N/A   Clear
5:53 AM 39.0 °F 36.0 °F 89% 30.13 in 10.0 mi Calm Calm - N/A   Clear
6:53 AM 39.9 °F 36.0 °F 86% 30.14 in 10.0 mi Calm Calm - N/A   Clear
7:53 AM 48.0 °F 37.0 °F 66% 30.14 in 10.0 mi SW 5.8 mph - N/A   Clear
8:53 AM 55.9 °F 39.0 °F 53% 30.14 in 10.0 mi SW 6.9 mph - N/A   Clear
9:53 AM 63.0 °F 39.9 °F 43% 30.13 in 10.0 mi SW 9.2 mph - N/A   Clear
10:53 AM 68.0 °F 37.0 °F 32% 30.12 in 10.0 mi WSW 11.5 mph 20.7 mph N/A   Clear
11:53 AM 70.0 °F 37.9 °F 31% 30.10 in 10.0 mi West 16.1 mph 24.2 mph N/A   Clear
12:53 PM 72.0 °F 39.0 °F 30% 30.08 in 10.0 mi WNW 10.4 mph 23.0 mph N/A   Clear
1:53 PM 73.0 °F 37.9 °F 28% 30.07 in 10.0 mi NW 12.7 mph 20.7 mph N/A   Clear
2:53 PM 73.0 °F 30.9 °F 21% 30.06 in 10.0 mi WNW 15.0 mph 23.0 mph N/A   Clear
3:53 PM 73.0 °F 30.9 °F 21% 30.05 in 10.0 mi WNW 11.5 mph 19.6 mph N/A   Clear
4:53 PM 71.1 °F 27.0 °F 19% 30.03 in 10.0 mi WNW 12.7 mph 19.6 mph N/A   Clear
5:53 PM 70.0 °F 27.0 °F 20% 30.03 in 10.0 mi WNW 6.9 mph - N/A   Clear
6:53 PM 66.9 °F 27.0 °F 22% 30.03 in 10.0 mi WNW 6.9 mph - N/A   Clear
7:53 PM 62.1 °F 28.9 °F 29% 30.04 in 10.0 mi West 4.6 mph - N/A   Clear
8:53 PM 61.0 °F 30.0 °F 31% 30.05 in 10.0 mi WSW 3.5 mph - N/A   Clear
9:53 PM 59.0 °F 30.9 °F 35% 30.05 in 10.0 mi WSW 3.5 mph - N/A   Clear
10:53 PM 57.0 °F 32.0 °F 39% 30.05 in 10.0 mi WSW 4.6 mph - N/A   Clear
11:53 PM 50.0 °F 37.9 °F 63% 30.05 in 10.0 mi Calm Calm - N/A   Scattered Clouds